Casper, WY

9:29 PM MDT on May 24, 2017 (GMT -0600)
Natrona County International

Weather History for KCPR - May, 2013

Change the Weather History Date:

Friday, May 24, 2013

  Actual Average Record
Temperature  
Mean Temperature 60 °F 55 °F  
Max Temperature 74 °F 70 °F 86 °F (1967)
Min Temperature 45 °F 40 °F 30 °F (1986)
Degree Days  
Heating Degree Days 5 10  
Month to date heating degree days 275 336  
Since 1 July heating degree days 7138 7378  
Cooling Degree Days 0 0  
Month to date cooling degree days 10 0  
Year to date cooling degree days 10 0  
Growing Degree Days 10 (Base 50)    
Moisture  
Dew Point 29 °F    
Average Humidity 39    
Maximum Humidity 65    
Minimum Humidity 13    
Precipitation  
Precipitation 0.00 in 0.07 in 0.66 in (2010)
Month to date precipitation 1.79 1.58  
Year to date precipitation 5.95 4.77  
Snow  
Snow 0.00 in 0.10 in - ()
Month to date snowfall 3.5 2.8  
Since 1 July snowfall 85.7 74.7  
Snow Depth 0.00 in    
Sea Level Pressure  
Sea Level Pressure 29.79 in    
Wind  
Wind Speed 13 mph (SW)    
Max Wind Speed 28 mph    
Max Gust Speed 40 mph    
Visibility 10 miles    
Events      
T = Trace of Precipitation, MM = Missing Value Source: NWS Daily Summary

Daily Weather History Graph

Daily Weather History Graph

Search for Another Location

Airport or City:

Trip Planner

Search our weather history database for the weather conditions in past years. The results will help you decide how hot, cold, wet, or windy it might be!

Date:

Astronomy

May. 24, 2013 Rise Set
Actual Time 5:34 AM MDT 8:31 PM MDT
Civil Twilight 5:00 AM MDT 9:05 PM MDT
Nautical Twilight 4:18 AM MDT 9:48 PM MDT
Astronomical Twilight 3:28 AM MDT 10:38 PM MDT
Moon 8:16 PM MDT (5/24) 5:10 AM MDT (5/24)
Length of Visible Light 16h 04m
Length of Day
14h 56m
Full, 100% of the Moon is Illuminated
May 24
Full
May 24
Full
May 31
Last Quarter
Jun 8
New
Jun 16
First Quarter

Hourly Weather History & Observations

Time (MDT) Temp. Dew Point Humidity Pressure Visibility Wind Dir Wind Speed Gust Speed Precip Events Conditions
12:53 AM 54.0 °F 41.0 °F 62% 29.63 in 10.0 mi Calm Calm - N/A   Clear
1:53 AM 57.9 °F 37.9 °F 47% 29.60 in 10.0 mi Calm Calm - N/A   Clear
2:53 AM 54.0 °F 39.9 °F 59% 29.60 in 10.0 mi Variable 3.5 mph - N/A   Clear
3:53 AM 55.0 °F 39.9 °F 57% 29.63 in 10.0 mi SSW 15.0 mph - N/A   Clear
4:53 AM 55.9 °F 37.9 °F 51% 29.67 in 10.0 mi SSW 18.4 mph 23.0 mph N/A   Clear
5:53 AM 52.0 °F 37.0 °F 57% 29.74 in 10.0 mi SW 16.1 mph - N/A   Clear
6:53 AM 54.0 °F 35.1 °F 49% 29.78 in 10.0 mi SSW 15.0 mph - N/A   Clear
7:53 AM 57.9 °F 30.0 °F 35% 29.81 in 10.0 mi SW 17.3 mph 24.2 mph N/A   Clear
8:53 AM 62.1 °F 23.0 °F 22% 29.83 in 10.0 mi SW 23.0 mph 33.4 mph N/A   Clear
9:53 AM 64.0 °F 21.9 °F 20% 29.84 in 10.0 mi SW 20.7 mph 29.9 mph N/A   Clear
10:53 AM 66.9 °F 19.0 °F 16% 29.84 in 10.0 mi SW 19.6 mph 28.8 mph N/A   Clear
11:53 AM 68.0 °F 21.0 °F 17% 29.85 in 10.0 mi SW 20.7 mph 32.2 mph N/A   Clear
12:53 PM 69.1 °F 23.0 °F 18% 29.86 in 10.0 mi SSW 21.9 mph 28.8 mph N/A   Clear
1:53 PM 71.1 °F 21.0 °F 15% 29.84 in 10.0 mi WSW 21.9 mph 31.1 mph N/A   Clear
2:53 PM 73.0 °F 19.0 °F 13% 29.83 in 10.0 mi SW 19.6 mph 29.9 mph N/A   Clear
3:53 PM 73.9 °F 21.9 °F 14% 29.81 in 10.0 mi SW 17.3 mph 26.5 mph N/A   Clear
4:53 PM 73.9 °F 19.0 °F 13% 29.81 in 10.0 mi SW 20.7 mph 28.8 mph N/A   Clear
5:53 PM 73.0 °F 19.9 °F 14% 29.81 in 10.0 mi WSW 16.1 mph 24.2 mph N/A   Clear
6:53 PM 71.1 °F 23.0 °F 16% 29.80 in 10.0 mi SW 8.1 mph - N/A   Clear
7:53 PM 66.9 °F 33.1 °F 28% 29.79 in 10.0 mi Calm Calm - N/A   Clear
8:53 PM 57.0 °F 34.0 °F 42% 29.83 in 10.0 mi WNW 3.5 mph - N/A   Clear
9:53 PM 51.1 °F 30.0 °F 44% 29.87 in 10.0 mi NNW 6.9 mph - N/A   Clear
10:53 PM 48.9 °F 32.0 °F 52% 29.88 in 10.0 mi SSE 3.5 mph - N/A   Clear
11:53 PM 46.9 °F 35.1 °F 63% 29.86 in 10.0 mi WSW 3.5 mph - N/A   Clear